{"data":{"norad_id":65305,"intl_designator":"2025-187A","name":"HULIANWANG DIGUI-73","alt_names":[],"object_type":"PAYLOAD","status":"ACTIVE","operator":null,"country":"PRC","launch_date":"2025-08-25","launch_site_code":"WSC","launch_vehicle":null,"mission":null,"orbit_class":"UNKNOWN","rcs_meters":null,"size_class":null,"mass_kg":null,"dimensions":null,"purposes":[],"wikipedia_slug":null,"has_3d_model":false,"image_url":null,"decayed_at":null,"tle_current":{"epoch":"2026-09-21T21:26:28.768992Z","epoch_age_seconds":41911,"freshness":"FRESH","line1":"1 65305U 25187A   26264.89338853 -.00000110  00000+0  29820-4 0  9996","line2":"2 65305  50.0043 219.0495 0000738   3.5507 356.5370 13.29326684 52562","mean_motion":13.29326684,"eccentricity":7.38e-5,"inclination_deg":50.0043,"raan_deg":219.0495,"arg_perigee_deg":3.5507,"mean_anomaly_deg":356.537,"bstar":2.982e-5,"rev_number":5256,"period_min":108.32551676966,"perigee_km":1148.7484645635,"apogee_km":1149.8595148536,"semimajor_km":7527.4409897086,"source":"CELESTRAK","updated_at":"2026-09-22T09:00:30.256225Z"}}}